Location: Iesi
(43.5167°N, 13.2333°E)
Time: 18:18:57
(UTC+00:00)

SPOT 3 Rocket - Pass Details

Date: 08 August 2020
Orbit: 778 x 795 km, 98.8° (Epoch: 23 September)

Event Time Altitude Azimuth Distance (km) Brightness Sun altitude
Exits shadow 19:14:15 - 159° (SSE) 2,758 5.9 -9.5°
Reaches altitude 10° 19:15:15 10° 159° (SSE) 2,355 5.5 -9.7°
Maximum altitude 19:20:27 77° 74° (ENE) 817 3.6 -10.4°
Drops below altitude 10° 19:25:40 10° 349° (N) 2,363 6.7 -11.2°
Sets 19:28:00 0° 348° (NNW) 3,294 7.6 -11.6°
